GFSNIL_prec_precacc_114.txt.gz
Total_Precipitation_Accumulation
0.20 0.09 0.14 0.06 0.10 0.14 0.13 0.13 0.17 0.32 0.46 0.61 0.86 0.87 0.75 0.65 0.64 0.74 0.82 0.95 1.02 1.12
0.29 0.15 0.09 0.12 0.14 0.17 0.14 0.15 0.22 0.31 0.48 0.76 1.03 1.07 1.08 1.04 0.96 0.99 0.95 0.81 0.72 0.70
0.25 0.35 0.24 0.24 0.42 0.46 0.49 0.45 0.51 0.55 0.63 0.65 0.70 0.71 0.83 0.86 0.75 0.69 0.65 0.60 0.61 0.67
0.24 0.28 0.68 1.04 1.08 0.94 0.97 1.09 0.99 0.83 0.73 0.79 0.90 0.97 0.85 0.63 0.60 0.65 0.65 0.68 0.72 0.69
0.98 1.04 1.16 1.53 1.49 1.26 1.13 0.93 0.84 0.95 0.87 0.70 0.59 0.52 0.51 0.48 0.49 0.45 0.51 0.55 0.67 0.62
1.36 1.38 1.68 1.53 1.34 1.20 1.09 1.02 0.89 0.71 0.55 0.40 0.34 0.30 0.30 0.30 0.32 0.40 0.41 0.43 0.39 0.36
0.91 0.74 0.69 0.50 0.49 0.43 0.45 0.41 0.31 0.29 0.28 0.27 0.23 0.21 0.21 0.20 0.20 0.23 0.30 0.39 0.36 0.31
0.49 0.44 0.32 0.26 0.23 0.28 0.31 0.30 0.30 0.28 0.23 0.20 0.21 0.22 0.22 0.16 0.13 0.13 0.15 0.19 0.20 0.21
0.44 0.41 0.37 0.33 0.24 0.23 0.24 0.20 0.19 0.21 0.23 0.21 0.18 0.32 0.22 0.14 0.12 0.17 0.17 0.16 0.15 0.22
0.43 0.38 0.29 0.20 0.16 0.12 0.18 0.26 0.31 0.27 0.22 0.15 0.16 0.28 0.17 0.17 0.08 0.09 0.13 0.15 0.16 0.19
0.36 0.30 0.25 0.19 0.22 0.24 0.29 0.27 0.20 0.13 0.09 0.09 0.16 0.23 0.12 0.13 0.08 0.11 0.15 0.18 0.19 0.23
0.47 0.34 0.30 0.34 0.43 0.36 0.19 0.11 0.07 0.07 0.07 0.08 0.12 0.20 0.13 0.12 0.09 0.18 0.22 0.22 0.28 0.36
0.52 0.57 0.52 0.43 0.25 0.18 0.15 0.13 0.12 0.13 0.12 0.21 0.12 0.28 0.18 0.15 0.08 0.18 0.21 0.23 0.29 0.54
0.80 0.51 0.35 0.31 0.25 0.24 0.23 0.23 0.27 0.31 0.25 0.23 0.31 0.32 0.35 0.24 0.15 0.19 0.27 0.35 0.41 0.61

GFSNIL_prec_precacc_117.txt.gz
Total_Precipitation_Accumulation
0.21 0.10 0.15 0.07 0.11 0.14 0.13 0.13 0.17 0.33 0.46 0.61 0.86 0.87 0.75 0.65 0.64 0.74 0.82 0.95 1.03 1.14
0.29 0.15 0.09 0.13 0.15 0.18 0.15 0.16 0.22 0.32 0.49 0.76 1.03 1.08 1.09 1.05 0.97 1.00 0.95 0.81 0.73 0.74
0.25 0.35 0.24 0.24 0.42 0.47 0.49 0.46 0.51 0.55 0.64 0.66 0.72 0.72 0.83 0.87 0.76 0.70 0.65 0.60 0.61 0.68
0.24 0.28 0.68 1.05 1.09 0.95 0.98 1.09 0.99 0.83 0.74 0.80 0.91 0.98 0.86 0.63 0.61 0.65 0.66 0.69 0.73 0.69
0.98 1.04 1.16 1.53 1.51 1.28 1.14 0.94 0.84 0.95 0.87 0.70 0.60 0.53 0.51 0.48 0.49 0.45 0.52 0.56 0.68 0.62
1.39 1.40 1.69 1.54 1.36 1.22 1.10 1.03 0.89 0.71 0.55 0.40 0.35 0.31 0.31 0.30 0.32 0.40 0.42 0.44 0.39 0.37
0.93 0.76 0.71 0.52 0.53 0.47 0.47 0.41 0.32 0.29 0.29 0.27 0.24 0.21 0.22 0.21 0.20 0.24 0.31 0.40 0.37 0.33
0.50 0.46 0.33 0.29 0.29 0.32 0.32 0.31 0.30 0.28 0.23 0.21 0.21 0.23 0.22 0.16 0.14 0.14 0.16 0.20 0.22 0.27
0.45 0.43 0.39 0.37 0.29 0.30 0.27 0.20 0.19 0.22 0.23 0.21 0.18 0.33 0.23 0.14 0.12 0.17 0.17 0.17 0.16 0.27
0.45 0.41 0.34 0.23 0.21 0.20 0.23 0.28 0.32 0.28 0.22 0.16 0.16 0.29 0.18 0.18 0.09 0.09 0.14 0.15 0.17 0.20
0.43 0.34 0.34 0.27 0.30 0.33 0.35 0.32 0.22 0.13 0.10 0.10 0.16 0.23 0.13 0.14 0.09 0.11 0.15 0.18 0.19 0.23
0.54 0.40 0.43 0.49 0.58 0.48 0.27 0.16 0.10 0.08 0.07 0.09 0.13 0.20 0.14 0.12 0.09 0.18 0.22 0.22 0.29 0.37
0.62 0.65 0.66 0.55 0.38 0.35 0.23 0.17 0.14 0.14 0.13 0.22 0.12 0.28 0.19 0.15 0.08 0.18 0.22 0.23 0.30 0.55
0.97 0.65 0.48 0.42 0.35 0.31 0.28 0.28 0.31 0.34 0.28 0.25 0.32 0.33 0.36 0.26 0.15 0.19 0.27 0.35 0.41 0.61

GFSNIL_prec_precacc_123.txt.gz
Total_Precipitation_Accumulation
0.21 0.10 0.15 0.07 0.11 0.15 0.14 0.15 0.20 0.36 0.50 0.64 0.89 0.90 0.78 0.66 0.65 0.75 0.83 0.96 1.04 1.15
0.29 0.15 0.09 0.13 0.16 0.19 0.15 0.16 0.22 0.33 0.51 0.78 1.06 1.11 1.12 1.07 0.99 1.02 0.96 0.82 0.73 0.75
0.25 0.35 0.24 0.24 0.43 0.48 0.50 0.46 0.52 0.56 0.65 0.67 0.74 0.75 0.87 0.90 0.78 0.72 0.67 0.62 0.62 0.68
0.24 0.28 0.68 1.05 1.09 0.96 0.99 1.10 1.01 0.85 0.75 0.82 0.92 1.00 0.88 0.65 0.63 0.67 0.67 0.70 0.74 0.70
0.98 1.04 1.16 1.54 1.51 1.28 1.16 0.95 0.85 0.97 0.89 0.72 0.61 0.54 0.54 0.51 0.51 0.47 0.54 0.58 0.69 0.64
1.39 1.41 1.70 1.55 1.36 1.23 1.13 1.05 0.91 0.74 0.58 0.42 0.37 0.32 0.31 0.31 0.33 0.41 0.43 0.45 0.41 0.38
0.93 0.76 0.73 0.55 0.56 0.50 0.50 0.44 0.33 0.31 0.31 0.29 0.25 0.23 0.24 0.22 0.22 0.25 0.32 0.40 0.38 0.34
0.50 0.46 0.34 0.30 0.30 0.34 0.36 0.33 0.32 0.31 0.26 0.22 0.23 0.26 0.24 0.18 0.16 0.16 0.18 0.21 0.23 0.31
0.45 0.43 0.40 0.38 0.31 0.32 0.33 0.27 0.25 0.24 0.26 0.26 0.21 0.36 0.26 0.16 0.13 0.18 0.19 0.19 0.19 0.30
0.45 0.41 0.34 0.24 0.22 0.23 0.31 0.37 0.41 0.36 0.26 0.18 0.20 0.34 0.20 0.19 0.09 0.10 0.16 0.16 0.18 0.23
0.44 0.36 0.37 0.29 0.31 0.37 0.45 0.45 0.33 0.23 0.16 0.13 0.19 0.30 0.17 0.16 0.09 0.12 0.17 0.20 0.21 0.24
0.55 0.45 0.50 0.58 0.66 0.58 0.40 0.36 0.31 0.22 0.16 0.15 0.16 0.23 0.16 0.14 0.09 0.19 0.23 0.23 0.30 0.39
0.65 0.72 0.76 0.66 0.62 0.60 0.46 0.39 0.35 0.34 0.29 0.40 0.21 0.32 0.21 0.16 0.09 0.18 0.22 0.23 0.30 0.58
1.01 0.77 0.64 0.62 0.53 0.67 0.65 0.53 0.55 0.60 0.50 0.44 0.49 0.45 0.41 0.28 0.15 0.19 0.28 0.35 0.41 0.62

GFSNIL_prec_precacc_129.txt.gz
Total_Precipitation_Accumulation
0.25 0.14 0.19 0.13 0.14 0.18 0.18 0.18 0.23 0.39 0.56 0.71 0.99 1.02 0.89 0.76 0.71 0.81 0.89 1.00 1.06 1.17
0.31 0.16 0.10 0.14 0.16 0.20 0.16 0.16 0.22 0.34 0.51 0.80 1.09 1.15 1.17 1.11 1.02 1.05 1.00 0.85 0.77 0.77
0.25 0.35 0.24 0.24 0.43 0.48 0.50 0.46 0.52 0.56 0.65 0.67 0.74 0.76 0.89 0.92 0.79 0.73 0.68 0.63 0.63 0.70
0.24 0.28 0.68 1.05 1.09 0.96 0.99 1.10 1.01 0.85 0.75 0.82 0.93 1.01 0.90 0.67 0.64 0.69 0.69 0.72 0.76 0.72
0.98 1.04 1.16 1.54 1.51 1.28 1.16 0.95 0.85 0.97 0.90 0.72 0.61 0.55 0.55 0.54 0.53 0.49 0.56 0.60 0.72 0.66
1.39 1.41 1.70 1.55 1.36 1.23 1.13 1.05 0.91 0.75 0.59 0.42 0.37 0.33 0.32 0.32 0.35 0.44 0.45 0.47 0.43 0.41
0.93 0.76 0.73 0.55 0.56 0.50 0.50 0.44 0.34 0.32 0.32 0.31 0.27 0.24 0.26 0.25 0.24 0.27 0.35 0.43 0.40 0.37
0.50 0.46 0.34 0.30 0.30 0.34 0.36 0.34 0.32 0.32 0.28 0.25 0.25 0.29 0.27 0.21 0.20 0.19 0.21 0.24 0.27 0.34
0.45 0.43 0.40 0.38 0.31 0.32 0.33 0.27 0.26 0.25 0.28 0.29 0.25 0.41 0.30 0.20 0.16 0.23 0.22 0.21 0.21 0.33
0.45 0.41 0.34 0.24 0.22 0.23 0.31 0.37 0.42 0.36 0.27 0.20 0.22 0.38 0.23 0.24 0.14 0.16 0.19 0.21 0.22 0.26
0.44 0.36 0.37 0.29 0.31 0.37 0.45 0.45 0.33 0.24 0.18 0.15 0.22 0.36 0.23 0.23 0.14 0.16 0.22 0.23 0.24 0.29
0.55 0.45 0.50 0.58 0.66 0.58 0.40 0.36 0.32 0.23 0.17 0.18 0.20 0.29 0.22 0.25 0.16 0.26 0.29 0.26 0.34 0.44
0.65 0.72 0.76 0.66 0.62 0.60 0.46 0.39 0.35 0.35 0.30 0.44 0.25 0.43 0.31 0.26 0.18 0.26 0.27 0.31 0.37 0.64
1.01 0.77 0.64 0.62 0.53 0.67 0.66 0.54 0.58 0.64 0.57 0.51 0.64 0.61 0.63 0.47 0.22 0.25 0.35 0.43 0.47 0.68

GFSNIL_prec_precacc_132.txt.gz
Total_Precipitation_Accumulation
0.36 0.24 0.22 0.15 0.20 0.24 0.21 0.19 0.24 0.39 0.57 0.72 1.00 1.02 0.90 0.79 0.75 0.84 0.92 1.01 1.10 1.19
0.35 0.18 0.13 0.16 0.17 0.21 0.17 0.16 0.23 0.34 0.52 0.80 1.09 1.15 1.17 1.12 1.04 1.08 1.01 0.85 0.77 0.79
0.26 0.35 0.25 0.25 0.43 0.49 0.50 0.46 0.52 0.56 0.65 0.67 0.75 0.77 0.89 0.92 0.80 0.75 0.69 0.65 0.64 0.70
0.24 0.28 0.68 1.05 1.09 0.96 0.99 1.10 1.01 0.85 0.75 0.82 0.93 1.01 0.91 0.68 0.65 0.71 0.72 0.75 0.78 0.73
0.98 1.04 1.16 1.54 1.51 1.28 1.16 0.95 0.85 0.97 0.90 0.72 0.61 0.55 0.55 0.54 0.53 0.50 0.58 0.62 0.74 0.69
1.39 1.41 1.70 1.55 1.36 1.23 1.13 1.05 0.91 0.75 0.59 0.42 0.37 0.33 0.32 0.32 0.36 0.44 0.46 0.47 0.45 0.42
0.93 0.76 0.73 0.55 0.56 0.50 0.50 0.44 0.34 0.32 0.32 0.31 0.27 0.24 0.26 0.25 0.25 0.28 0.35 0.44 0.41 0.38
0.50 0.46 0.34 0.30 0.30 0.34 0.36 0.34 0.32 0.32 0.28 0.25 0.25 0.29 0.27 0.21 0.20 0.20 0.22 0.25 0.28 0.35
0.45 0.43 0.40 0.38 0.31 0.32 0.33 0.27 0.26 0.25 0.28 0.29 0.25 0.41 0.30 0.20 0.17 0.24 0.24 0.23 0.22 0.33
0.45 0.41 0.34 0.24 0.22 0.23 0.31 0.37 0.42 0.36 0.28 0.20 0.22 0.38 0.23 0.24 0.15 0.17 0.21 0.23 0.24 0.28
0.44 0.36 0.37 0.29 0.31 0.37 0.45 0.45 0.33 0.24 0.18 0.15 0.22 0.36 0.23 0.24 0.15 0.18 0.23 0.26 0.26 0.30
0.55 0.45 0.50 0.58 0.66 0.58 0.40 0.36 0.32 0.23 0.17 0.18 0.20 0.30 0.23 0.27 0.18 0.30 0.31 0.27 0.35 0.46
0.65 0.72 0.76 0.66 0.62 0.60 0.46 0.39 0.35 0.35 0.30 0.45 0.25 0.45 0.32 0.29 0.19 0.29 0.33 0.38 0.40 0.66
1.01 0.77 0.64 0.62 0.53 0.67 0.66 0.54 0.58 0.64 0.57 0.51 0.66 0.62 0.64 0.48 0.23 0.26 0.36 0.44 0.50 0.72

GFSNIL_prec_precacc_138.txt.gz
Total_Precipitation_Accumulation
0.64 0.75 0.63 0.45 0.43 0.33 0.30 0.22 0.27 0.40 0.59 0.75 1.02 1.06 0.94 0.82 0.76 0.85 0.93 1.02 1.14 1.27
1.02 0.94 0.86 0.80 0.91 0.75 0.51 0.29 0.26 0.37 0.57 0.84 1.12 1.24 1.21 1.14 1.04 1.08 1.02 0.85 0.79 0.84
0.97 1.15 1.03 1.05 1.04 1.01 0.79 0.68 0.64 0.63 0.76 0.90 0.86 0.82 0.91 0.93 0.80 0.75 0.69 0.65 0.64 0.73
0.88 0.91 1.45 1.86 1.73 1.57 1.34 1.29 1.10 0.92 0.84 1.03 1.34 1.26 0.98 0.71 0.66 0.72 0.73 0.76 0.78 0.74
1.36 1.64 1.79 2.15 1.93 1.54 1.49 1.24 1.05 1.17 1.02 0.80 0.66 0.61 0.59 0.56 0.54 0.51 0.59 0.62 0.75 0.69
1.73 2.00 2.33 2.11 1.81 1.66 1.43 1.15 0.99 0.90 0.80 0.61 0.45 0.36 0.33 0.33 0.36 0.45 0.46 0.48 0.46 0.43
1.18 1.10 1.16 0.83 0.89 0.97 1.11 0.74 0.38 0.33 0.35 0.34 0.28 0.25 0.26 0.25 0.25 0.28 0.35 0.45 0.42 0.39
0.64 0.63 0.53 0.45 0.40 0.54 0.56 0.61 0.50 0.37 0.30 0.25 0.25 0.29 0.27 0.21 0.20 0.20 0.22 0.26 0.29 0.36
0.59 0.48 0.45 0.43 0.37 0.41 0.43 0.33 0.29 0.26 0.29 0.29 0.25 0.41 0.30 0.20 0.17 0.24 0.24 0.23 0.23 0.34
0.47 0.43 0.35 0.25 0.24 0.26 0.33 0.39 0.43 0.37 0.28 0.20 0.22 0.39 0.23 0.25 0.15 0.17 0.21 0.23 0.25 0.29
0.45 0.36 0.37 0.30 0.31 0.37 0.45 0.45 0.33 0.25 0.18 0.15 0.22 0.36 0.24 0.24 0.15 0.18 0.23 0.27 0.27 0.32
0.55 0.45 0.50 0.58 0.66 0.58 0.40 0.36 0.32 0.23 0.17 0.18 0.20 0.30 0.23 0.27 0.18 0.30 0.31 0.28 0.36 0.48
0.65 0.72 0.76 0.66 0.62 0.60 0.46 0.39 0.35 0.35 0.30 0.45 0.25 0.45 0.32 0.29 0.19 0.29 0.34 0.39 0.43 0.72
1.02 0.78 0.65 0.63 0.53 0.67 0.66 0.54 0.58 0.64 0.57 0.52 0.66 0.62 0.64 0.48 0.23 0.27 0.38 0.46 0.51 0.75

GFSNIL_prec_precacc_141.txt.gz
Total_Precipitation_Accumulation
0.64 0.75 0.63 0.47 0.57 0.47 0.45 0.50 0.69 0.82 0.66 0.76 1.02 1.06 0.95 0.85 0.78 0.85 0.93 1.02 1.14 1.27
1.03 0.94 0.86 0.81 1.21 1.21 0.78 0.63 0.75 1.16 0.91 0.87 1.12 1.24 1.23 1.19 1.07 1.09 1.02 0.85 0.79 0.84
0.98 1.15 1.03 1.06 1.22 1.54 1.56 1.24 1.19 1.29 1.09 0.98 0.89 0.88 0.95 0.97 0.83 0.76 0.69 0.65 0.64 0.73
0.98 0.95 1.46 1.88 1.86 2.00 2.27 2.18 1.84 1.51 1.30 1.19 1.54 1.63 1.21 0.84 0.75 0.77 0.74 0.76 0.79 0.74
1.53 1.74 1.81 2.17 2.11 1.68 2.40 2.47 2.28 2.27 1.68 0.98 0.90 1.01 1.04 0.83 0.81 0.69 0.68 0.65 0.77 0.70
1.85 2.07 2.42 2.24 2.04 1.97 1.76 2.18 2.18 2.19 1.75 0.82 0.59 0.51 0.47 0.53 0.50 0.58 0.58 0.52 0.48 0.45
1.43 1.18 1.27 1.23 1.33 1.48 1.57 1.45 1.26 1.33 0.99 0.59 0.38 0.33 0.35 0.33 0.32 0.34 0.39 0.46 0.43 0.40
0.93 0.87 0.61 0.59 0.70 1.05 1.07 1.14 1.34 1.35 1.05 0.55 0.31 0.31 0.30 0.25 0.24 0.24 0.24 0.26 0.29 0.36
0.67 0.61 0.59 0.61 0.52 0.61 0.79 0.80 0.74 0.83 1.00 0.94 0.48 0.49 0.33 0.22 0.18 0.24 0.25 0.23 0.23 0.34
0.50 0.47 0.39 0.31 0.32 0.36 0.50 0.64 0.72 0.64 0.50 0.44 0.43 0.54 0.31 0.27 0.15 0.17 0.21 0.23 0.25 0.29
0.45 0.36 0.38 0.30 0.32 0.37 0.46 0.46 0.37 0.31 0.27 0.25 0.27 0.39 0.26 0.25 0.16 0.18 0.23 0.27 0.27 0.32
0.55 0.45 0.50 0.58 0.66 0.58 0.40 0.36 0.32 0.24 0.17 0.19 0.21 0.30 0.24 0.27 0.18 0.30 0.31 0.28 0.36 0.48
0.65 0.72 0.76 0.66 0.62 0.60 0.46 0.39 0.35 0.35 0.30 0.45 0.25 0.45 0.33 0.29 0.19 0.29 0.34 0.39 0.43 0.72
1.02 0.78 0.65 0.63 0.53 0.67 0.66 0.54 0.58 0.64 0.57 0.52 0.66 0.63 0.64 0.48 0.24 0.28 0.38 0.46 0.51 0.75

GFSNIL_prec_precacc_144.txt.gz
Total_Precipitation_Accumulation
0.64 0.76 0.63 0.47 0.57 0.47 0.46 0.50 0.70 0.91 1.12 1.26 1.69 1.83 1.26 0.97 0.83 0.90 0.93 1.02 1.14 1.27
1.03 0.94 0.86 0.81 1.21 1.21 0.78 0.63 0.75 1.22 1.61 1.81 2.21 2.15 2.26 1.59 1.18 1.15 1.04 0.86 0.79 0.84
0.98 1.16 1.04 1.06 1.22 1.54 1.57 1.24 1.19 1.39 1.63 2.03 1.92 2.09 1.98 1.56 1.03 0.85 0.78 0.69 0.66 0.76
1.00 0.98 1.50 1.92 1.88 2.01 2.28 2.18 1.84 1.52 1.66 1.73 1.94 2.12 1.75 1.36 0.93 0.89 0.86 0.86 0.87 0.79
1.65 1.89 1.98 2.32 2.21 1.73 2.43 2.48 2.29 2.28 1.91 2.15 1.88 1.62 1.55 1.37 1.02 0.81 0.79 0.76 0.86 0.76
2.01 2.24 2.59 2.45 2.23 2.06 1.90 2.25 2.20 2.30 2.22 1.65 1.89 1.40 1.12 1.08 0.88 0.78 0.78 0.70 0.58 0.50
1.68 1.45 1.49 1.42 1.56 1.63 1.64 1.49 1.28 1.42 1.51 1.35 1.09 1.31 1.17 1.00 0.71 0.46 0.53 0.65 0.66 0.57
1.07 1.21 0.90 0.78 0.91 1.18 1.13 1.15 1.36 1.41 1.37 1.40 1.10 0.85 0.98 1.03 0.65 0.40 0.31 0.33 0.37 0.50
0.72 0.75 0.76 0.78 0.63 0.67 0.82 0.85 0.83 0.94 1.25 1.43 1.49 1.26 0.86 0.71 0.65 0.56 0.33 0.27 0.28 0.40
0.50 0.47 0.39 0.32 0.34 0.37 0.53 0.70 0.84 0.83 0.73 0.76 0.99 1.38 1.08 0.86 0.60 0.52 0.37 0.26 0.26 0.30
0.46 0.36 0.38 0.30 0.32 0.38 0.46 0.47 0.39 0.38 0.38 0.40 0.50 0.71 0.74 0.82 0.64 0.54 0.40 0.32 0.29 0.33
0.56 0.45 0.50 0.58 0.66 0.58 0.40 0.36 0.32 0.24 0.19 0.22 0.26 0.39 0.35 0.38 0.33 0.46 0.43 0.34 0.40 0.50
0.66 0.72 0.76 0.66 0.62 0.60 0.46 0.39 0.35 0.35 0.31 0.46 0.27 0.46 0.34 0.31 0.21 0.31 0.36 0.41 0.44 0.73
1.02 0.79 0.65 0.63 0.53 0.67 0.66 0.54 0.58 0.64 0.57 0.52 0.67 0.63 0.65 0.48 0.24 0.28 0.39 0.46 0.51 0.75

GFSNIL_prec_precacc_147.txt.gz
Total_Precipitation_Accumulation
0.64 0.76 0.64 0.48 0.57 0.48 0.47 0.51 0.70 0.91 1.12 1.26 1.70 1.91 1.54 1.41 1.63 1.68 1.50 1.34 1.36 1.39
1.03 0.94 0.87 0.81 1.21 1.21 0.79 0.64 0.75 1.22 1.61 1.81 2.21 2.15 2.39 2.03 1.52 1.87 1.79 1.35 1.08 1.01
0.99 1.16 1.04 1.06 1.22 1.54 1.57 1.25 1.21 1.39 1.63 2.03 1.92 2.09 2.04 2.16 1.53 1.12 1.28 1.17 0.93 0.96
1.01 0.99 1.50 1.92 1.89 2.02 2.29 2.20 1.86 1.53 1.66 1.73 1.94 2.12 1.75 1.54 1.45 1.33 1.14 1.17 1.22 1.04
1.66 1.90 1.99 2.33 2.24 1.77 2.46 2.52 2.31 2.31 1.92 2.16 1.89 1.62 1.55 1.38 1.20 1.31 1.26 1.17 1.21 1.05
2.01 2.25 2.61 2.49 2.33 2.19 2.00 2.43 2.33 2.36 2.26 1.67 1.90 1.41 1.13 1.11 1.25 1.09 1.35 1.33 1.09 0.89
1.69 1.48 1.56 1.50 1.72 1.90 1.94 1.80 1.67 1.76 1.73 1.45 1.12 1.31 1.17 1.00 0.85 0.96 0.82 0.96 1.14 1.00
1.08 1.25 0.96 0.87 1.04 1.47 1.44 1.45 1.63 1.66 1.61 1.57 1.16 0.88 0.99 1.07 0.82 0.78 0.83 0.69 0.64 0.73
0.72 0.76 0.78 0.81 0.71 0.77 0.95 1.02 1.07 1.21 1.52 1.65 1.67 1.40 0.92 0.77 0.83 0.86 0.78 0.76 0.64 0.62
0.50 0.47 0.39 0.32 0.34 0.38 0.54 0.72 0.92 1.01 0.96 0.97 1.19 1.55 1.22 0.97 0.73 0.74 0.80 0.81 0.76 0.65
0.46 0.36 0.38 0.30 0.32 0.38 0.46 0.47 0.39 0.38 0.40 0.44 0.56 0.78 0.83 0.96 0.87 0.82 0.79 0.78 0.79 0.82
0.57 0.45 0.50 0.58 0.66 0.58 0.40 0.36 0.32 0.24 0.19 0.22 0.27 0.40 0.38 0.42 0.43 0.68 0.77 0.73 0.80 0.92
0.67 0.73 0.76 0.66 0.62 0.60 0.46 0.39 0.35 0.35 0.31 0.46 0.28 0.47 0.35 0.32 0.24 0.36 0.46 0.55 0.60 0.91
1.02 0.79 0.65 0.63 0.53 0.67 0.66 0.54 0.58 0.64 0.57 0.52 0.67 0.63 0.65 0.48 0.24 0.30 0.41 0.49 0.55 0.79

GFSNIL_prec_precacc_150.txt.gz
Total_Precipitation_Accumulation
0.64 0.76 0.64 0.48 0.58 0.49 0.48 0.52 0.70 0.91 1.13 1.27 1.70 1.91 1.55 1.42 1.64 1.68 1.53 1.52 1.63 1.78
1.03 0.94 0.87 0.82 1.22 1.22 0.79 0.65 0.76 1.23 1.61 1.81 2.21 2.15 2.39 2.04 1.53 1.88 1.80 1.43 1.29 1.22
0.99 1.16 1.04 1.07 1.23 1.55 1.57 1.26 1.22 1.40 1.63 2.03 1.92 2.09 2.04 2.16 1.54 1.13 1.28 1.18 1.06 1.29
1.01 0.99 1.50 1.93 1.89 2.02 2.29 2.20 1.86 1.54 1.66 1.73 1.94 2.12 1.75 1.54 1.45 1.33 1.14 1.17 1.23 1.10
1.66 1.90 1.99 2.34 2.24 1.78 2.47 2.52 2.32 2.31 1.93 2.17 1.89 1.63 1.55 1.38 1.21 1.31 1.27 1.17 1.23 1.16
2.01 2.25 2.61 2.49 2.34 2.20 2.01 2.44 2.34 2.36 2.27 1.69 1.92 1.43 1.15 1.12 1.26 1.09 1.36 1.34 1.10 0.95
1.69 1.48 1.56 1.50 1.72 1.91 1.95 1.82 1.70 1.79 1.78 1.55 1.20 1.38 1.24 1.06 0.89 0.98 0.84 0.97 1.15 1.02
1.08 1.25 0.96 0.87 1.04 1.47 1.45 1.46 1.66 1.70 1.70 1.77 1.42 1.13 1.17 1.16 0.90 0.86 0.87 0.70 0.65 0.77
0.72 0.76 0.78 0.81 0.71 0.78 0.96 1.03 1.09 1.28 1.68 1.91 1.99 1.76 1.21 0.96 0.95 0.94 0.83 0.80 0.67 0.65
0.50 0.47 0.39 0.32 0.34 0.38 0.54 0.72 0.92 1.03 1.03 1.16 1.47 1.88 1.56 1.28 0.96 0.89 0.92 0.87 0.79 0.69
0.46 0.36 0.38 0.30 0.32 0.38 0.46 0.47 0.39 0.38 0.40 0.46 0.64 0.97 1.07 1.25 1.16 1.08 0.99 0.90 0.88 0.89
0.57 0.45 0.50 0.58 0.66 0.58 0.40 0.36 0.32 0.24 0.19 0.22 0.27 0.41 0.40 0.47 0.54 0.82 0.99 0.97 1.00 1.04
0.67 0.73 0.76 0.66 0.62 0.60 0.46 0.39 0.35 0.35 0.31 0.46 0.28 0.47 0.35 0.32 0.24 0.37 0.47 0.57 0.64 0.99
1.02 0.80 0.65 0.63 0.53 0.67 0.66 0.54 0.58 0.64 0.57 0.52 0.67 0.63 0.65 0.49 0.24 0.30 0.41 0.50 0.56 0.81

GFSNIL_prec_precacc_156.txt.gz
Total_Precipitation_Accumulation
0.64 0.76 0.64 0.48 0.58 0.50 0.49 0.53 0.71 0.91 1.13 1.27 1.70 1.91 1.55 1.42 1.65 1.69 1.55 1.55 1.67 1.82
1.03 0.94 0.87 0.82 1.22 1.23 0.80 0.66 0.76 1.23 1.61 1.81 2.21 2.15 2.39 2.04 1.53 1.88 1.81 1.46 1.32 1.25
0.99 1.16 1.04 1.07 1.23 1.55 1.58 1.26 1.23 1.40 1.63 2.03 1.92 2.09 2.05 2.16 1.54 1.13 1.29 1.21 1.10 1.33
1.01 0.99 1.50 1.93 1.89 2.02 2.29 2.20 1.87 1.54 1.67 1.74 1.94 2.13 1.75 1.54 1.46 1.33 1.15 1.19 1.26 1.15
1.66 1.90 1.99 2.34 2.24 1.78 2.47 2.53 2.32 2.32 1.93 2.17 1.90 1.63 1.56 1.39 1.21 1.32 1.27 1.18 1.24 1.19
2.01 2.25 2.61 2.49 2.34 2.20 2.02 2.44 2.34 2.37 2.28 1.71 1.94 1.44 1.16 1.13 1.26 1.10 1.37 1.35 1.11 0.96
1.69 1.48 1.56 1.50 1.72 1.91 1.95 1.82 1.70 1.79 1.79 1.57 1.22 1.39 1.25 1.07 0.90 1.00 0.87 0.99 1.17 1.05
1.08 1.25 0.96 0.87 1.04 1.47 1.45 1.47 1.66 1.71 1.70 1.79 1.45 1.18 1.22 1.21 0.95 0.93 0.94 0.77 0.71 0.85
0.72 0.76 0.78 0.81 0.71 0.78 0.96 1.03 1.09 1.29 1.68 1.92 2.02 1.78 1.27 1.06 1.08 1.06 0.96 0.96 0.82 0.77
0.50 0.47 0.39 0.32 0.34 0.38 0.54 0.72 0.92 1.03 1.04 1.16 1.49 1.90 1.62 1.41 1.10 1.04 1.08 1.09 0.99 0.88
0.46 0.36 0.38 0.30 0.32 0.38 0.46 0.47 0.39 0.38 0.40 0.47 0.64 0.97 1.09 1.30 1.24 1.26 1.20 1.07 1.12 1.13
0.57 0.45 0.50 0.58 0.66 0.58 0.40 0.36 0.32 0.24 0.19 0.22 0.28 0.41 0.40 0.47 0.56 0.84 1.08 1.12 1.17 1.24
0.67 0.73 0.76 0.66 0.62 0.60 0.46 0.39 0.35 0.35 0.31 0.46 0.28 0.47 0.35 0.32 0.24 0.37 0.47 0.58 0.67 1.04
1.02 0.80 0.65 0.63 0.53 0.67 0.66 0.54 0.58 0.64 0.57 0.52 0.67 0.63 0.65 0.49 0.24 0.30 0.42 0.50 0.57 0.83

GFSNIL_prec_precacc_159.txt.gz
Total_Precipitation_Accumulation
0.64 0.76 0.64 0.48 0.58 0.50 0.49 0.53 0.71 0.91 1.13 1.27 1.70 1.91 1.55 1.42 1.65 1.70 1.56 1.56 1.67 1.83
1.03 0.94 0.87 0.82 1.22 1.23 0.80 0.66 0.76 1.23 1.61 1.81 2.21 2.15 2.39 2.04 1.54 1.89 1.81 1.47 1.32 1.26
0.99 1.16 1.04 1.07 1.23 1.55 1.58 1.26 1.23 1.40 1.63 2.03 1.92 2.09 2.05 2.17 1.54 1.14 1.29 1.21 1.10 1.33
1.01 0.99 1.50 1.93 1.89 2.02 2.29 2.20 1.87 1.54 1.67 1.74 1.94 2.13 1.76 1.54 1.46 1.34 1.15 1.19 1.26 1.15
1.66 1.90 1.99 2.34 2.24 1.78 2.47 2.53 2.32 2.32 1.93 2.17 1.90 1.63 1.56 1.39 1.21 1.32 1.28 1.18 1.24 1.19
2.01 2.25 2.61 2.49 2.34 2.20 2.02 2.44 2.34 2.37 2.28 1.71 1.95 1.45 1.16 1.13 1.27 1.11 1.38 1.36 1.12 0.97
1.69 1.48 1.56 1.50 1.72 1.91 1.95 1.82 1.70 1.80 1.79 1.57 1.22 1.40 1.25 1.08 0.91 1.00 0.88 1.00 1.18 1.06
1.08 1.25 0.96 0.87 1.04 1.47 1.45 1.47 1.66 1.71 1.70 1.79 1.45 1.18 1.23 1.21 0.96 0.94 0.95 0.78 0.72 0.87
0.72 0.76 0.78 0.81 0.71 0.78 0.96 1.03 1.09 1.29 1.68 1.92 2.02 1.78 1.27 1.06 1.09 1.07 0.96 0.97 0.83 0.78
0.50 0.47 0.39 0.32 0.34 0.38 0.54 0.72 0.92 1.03 1.04 1.16 1.49 1.90 1.62 1.41 1.11 1.05 1.09 1.09 1.00 0.89
0.46 0.36 0.38 0.30 0.32 0.38 0.46 0.47 0.39 0.38 0.40 0.47 0.64 0.97 1.09 1.30 1.24 1.26 1.20 1.08 1.13 1.14
0.57 0.45 0.50 0.58 0.66 0.58 0.40 0.36 0.32 0.24 0.19 0.22 0.28 0.41 0.40 0.47 0.56 0.84 1.08 1.12 1.17 1.24
0.67 0.73 0.76 0.66 0.62 0.60 0.46 0.39 0.35 0.35 0.31 0.46 0.28 0.47 0.35 0.32 0.24 0.37 0.47 0.58 0.67 1.04
1.02 0.80 0.65 0.63 0.53 0.67 0.66 0.54 0.58 0.64 0.57 0.52 0.67 0.63 0.65 0.49 0.24 0.30 0.42 0.50 0.57 0.83

GFSNIL_prec_precacc_162.txt.gz
Total_Precipitation_Accumulation
0.64 0.76 0.64 0.48 0.58 0.50 0.49 0.53 0.71 0.91 1.13 1.27 1.70 1.91 1.55 1.42 1.65 1.70 1.56 1.56 1.67 1.83
1.03 0.94 0.87 0.82 1.22 1.23 0.80 0.66 0.76 1.23 1.61 1.81 2.21 2.15 2.40 2.04 1.54 1.89 1.81 1.47 1.32 1.26
0.99 1.16 1.04 1.07 1.23 1.55 1.58 1.26 1.23 1.40 1.63 2.03 1.92 2.09 2.05 2.17 1.54 1.14 1.30 1.21 1.10 1.34
1.01 0.99 1.50 1.93 1.89 2.02 2.29 2.20 1.87 1.54 1.67 1.74 1.95 2.13 1.76 1.54 1.46 1.34 1.15 1.19 1.27 1.15
1.66 1.90 1.99 2.34 2.24 1.78 2.47 2.53 2.32 2.32 1.93 2.17 1.90 1.63 1.56 1.39 1.21 1.32 1.28 1.19 1.25 1.19
2.01 2.25 2.61 2.49 2.34 2.20 2.02 2.44 2.34 2.37 2.28 1.71 1.95 1.45 1.16 1.13 1.27 1.11 1.38 1.37 1.13 0.98
1.69 1.48 1.56 1.50 1.72 1.91 1.95 1.82 1.70 1.80 1.79 1.57 1.22 1.40 1.25 1.08 0.91 1.01 0.88 1.01 1.19 1.08
1.08 1.25 0.96 0.87 1.04 1.47 1.45 1.47 1.66 1.71 1.71 1.79 1.45 1.18 1.23 1.21 0.96 0.94 0.95 0.78 0.73 0.89
0.72 0.76 0.78 0.81 0.71 0.78 0.96 1.03 1.09 1.29 1.68 1.92 2.02 1.78 1.27 1.06 1.09 1.07 0.97 0.97 0.84 0.78
0.50 0.47 0.39 0.32 0.34 0.38 0.54 0.72 0.92 1.03 1.04 1.16 1.49 1.90 1.62 1.41 1.11 1.05 1.09 1.09 1.00 0.89
0.46 0.36 0.38 0.30 0.32 0.38 0.46 0.47 0.39 0.38 0.40 0.47 0.64 0.97 1.09 1.30 1.24 1.26 1.20 1.08 1.13 1.14
0.57 0.45 0.50 0.58 0.66 0.58 0.40 0.36 0.32 0.24 0.19 0.22 0.28 0.41 0.40 0.47 0.56 0.84 1.08 1.12 1.17 1.24
0.67 0.73 0.76 0.66 0.62 0.60 0.46 0.39 0.35 0.35 0.31 0.46 0.28 0.47 0.35 0.32 0.24 0.37 0.47 0.58 0.67 1.04
1.02 0.80 0.65 0.63 0.53 0.67 0.66 0.54 0.58 0.64 0.57 0.52 0.67 0.63 0.65 0.49 0.24 0.30 0.42 0.50 0.57 0.83

GFSNIL_prec_precacc_165.txt.gz
Total_Precipitation_Accumulation
0.64 0.76 0.64 0.48 0.58 0.50 0.49 0.53 0.71 0.91 1.13 1.27 1.70 1.91 1.55 1.42 1.65 1.70 1.56 1.56 1.67 1.83
1.03 0.94 0.87 0.82 1.22 1.23 0.80 0.66 0.76 1.23 1.61 1.81 2.21 2.15 2.40 2.04 1.54 1.89 1.81 1.47 1.32 1.26
0.99 1.16 1.04 1.07 1.23 1.55 1.58 1.26 1.23 1.40 1.63 2.03 1.92 2.09 2.05 2.17 1.54 1.14 1.30 1.22 1.10 1.34
1.01 0.99 1.50 1.93 1.89 2.02 2.29 2.20 1.87 1.54 1.67 1.74 1.95 2.13 1.76 1.54 1.46 1.34 1.15 1.19 1.27 1.15
1.66 1.90 1.99 2.34 2.24 1.78 2.47 2.53 2.32 2.32 1.93 2.17 1.90 1.63 1.56 1.39 1.21 1.32 1.28 1.19 1.25 1.20
2.01 2.25 2.61 2.49 2.34 2.20 2.02 2.44 2.34 2.37 2.28 1.71 1.95 1.45 1.16 1.13 1.27 1.11 1.38 1.37 1.13 0.98
1.69 1.48 1.56 1.50 1.72 1.91 1.95 1.82 1.70 1.80 1.79 1.57 1.22 1.40 1.25 1.08 0.91 1.01 0.88 1.01 1.20 1.08
1.08 1.25 0.96 0.87 1.04 1.47 1.45 1.47 1.66 1.71 1.71 1.79 1.45 1.18 1.23 1.21 0.96 0.94 0.95 0.78 0.73 0.89
0.72 0.76 0.78 0.81 0.71 0.78 0.96 1.03 1.09 1.29 1.68 1.92 2.02 1.78 1.27 1.06 1.09 1.07 0.97 0.97 0.84 0.78
0.50 0.47 0.39 0.32 0.34 0.38 0.54 0.72 0.92 1.03 1.04 1.16 1.49 1.90 1.62 1.41 1.11 1.05 1.09 1.09 1.00 0.89
0.46 0.36 0.38 0.30 0.32 0.38 0.46 0.47 0.39 0.38 0.40 0.47 0.64 0.97 1.09 1.30 1.24 1.26 1.20 1.08 1.13 1.14
0.57 0.45 0.50 0.58 0.66 0.58 0.40 0.36 0.32 0.24 0.19 0.22 0.28 0.41 0.40 0.47 0.56 0.84 1.08 1.12 1.17 1.24
0.67 0.73 0.76 0.66 0.62 0.60 0.46 0.39 0.35 0.35 0.31 0.46 0.28 0.47 0.35 0.32 0.24 0.37 0.47 0.58 0.67 1.04
1.02 0.80 0.65 0.63 0.53 0.67 0.66 0.54 0.58 0.64 0.57 0.52 0.67 0.63 0.65 0.49 0.24 0.30 0.42 0.50 0.57 0.83

GFSNIL_prec_precacc_168.txt.gz
Total_Precipitation_Accumulation
0.64 0.76 0.64 0.48 0.58 0.50 0.49 0.53 0.71 0.91 1.13 1.27 1.70 1.91 1.55 1.42 1.65 1.70 1.56 1.56 1.67 1.83
1.03 0.94 0.87 0.82 1.22 1.23 0.80 0.66 0.76 1.23 1.61 1.81 2.21 2.15 2.40 2.05 1.54 1.89 1.81 1.47 1.32 1.26
0.99 1.16 1.04 1.07 1.23 1.55 1.58 1.26 1.23 1.40 1.63 2.03 1.92 2.09 2.05 2.17 1.54 1.14 1.30 1.22 1.10 1.34
1.01 0.99 1.50 1.93 1.89 2.02 2.29 2.20 1.87 1.54 1.67 1.74 1.95 2.13 1.76 1.54 1.46 1.34 1.15 1.19 1.27 1.16
1.66 1.90 1.99 2.34 2.24 1.78 2.47 2.53 2.32 2.32 1.93 2.17 1.90 1.63 1.56 1.39 1.22 1.32 1.28 1.19 1.25 1.20
2.01 2.25 2.61 2.49 2.34 2.20 2.02 2.44 2.34 2.37 2.28 1.71 1.95 1.45 1.16 1.13 1.27 1.11 1.38 1.37 1.13 0.99
1.69 1.48 1.56 1.50 1.72 1.91 1.95 1.82 1.70 1.80 1.79 1.57 1.22 1.40 1.25 1.08 0.91 1.01 0.88 1.01 1.20 1.08
1.08 1.25 0.96 0.87 1.04 1.47 1.45 1.47 1.66 1.71 1.71 1.79 1.45 1.18 1.23 1.21 0.96 0.94 0.95 0.78 0.73 0.89
0.72 0.76 0.78 0.81 0.71 0.78 0.96 1.03 1.09 1.29 1.68 1.92 2.02 1.78 1.27 1.06 1.09 1.07 0.97 0.97 0.84 0.78
0.50 0.47 0.39 0.32 0.34 0.38 0.54 0.72 0.92 1.03 1.04 1.16 1.49 1.90 1.62 1.41 1.11 1.05 1.09 1.09 1.00 0.89
0.46 0.36 0.38 0.30 0.32 0.38 0.46 0.47 0.39 0.38 0.40 0.47 0.64 0.97 1.09 1.30 1.24 1.26 1.20 1.08 1.13 1.14
0.57 0.45 0.50 0.58 0.66 0.58 0.40 0.36 0.32 0.24 0.19 0.22 0.28 0.41 0.40 0.47 0.56 0.84 1.08 1.12 1.17 1.24
0.67 0.73 0.76 0.66 0.62 0.60 0.46 0.39 0.35 0.35 0.31 0.46 0.28 0.47 0.35 0.32 0.24 0.37 0.47 0.58 0.67 1.04
1.02 0.80 0.65 0.63 0.53 0.67 0.66 0.54 0.58 0.64 0.57 0.52 0.67 0.63 0.65 0.49 0.24 0.30 0.42 0.50 0.57 0.83